#timestamp,LO_Frequency,Hit,StdDev 
1508479215.7,286046998.4,P
1508479235.6,286046998.7,P
1508479255.4,286046998.5,Y
1508479275.3,286047002.0,P
1508479295.1,286047003.8,N
1508479296.0,286047003.8,N
1508479315.8,286047003.8,N
1508479335.7,286047006.0,N
1508479355.5,286047003.2,N
1508479375.3,286047005.9,N
1508479395.2,286047005.8,N
1508479415.0,286047005.8,N
1508479415.9,286047005.8,N
1508479435.8,286047005.2,N
1508479455.6,286047004.8,N
1508479475.4,286047002.9,N
1508479495.3,286047004.0,N
1508479515.1,286047003.8,N
1508479535.8,286047004.1,N
1508479555.7,286047003.6,N
1508479575.5,286047005.9,Y
1508479595.4,286047000.4,P
1508479615.2,286047000.5,N
1508479635.0,286047000.1,N
1508479635.9,286047000.1,N
1508479655.8,286047000.2,N
1508479675.6,286047001.8,N
1508479695.5,286047002.0,N
1508479715.3,286047002.7,N
1508479735.1,286046998.1,N
1508479755.9,286047000.7,N
1508479775.7,286047000.3,N
1508479795.5,286047000.1,N
1508479815.4,286046998.1,N
1508479835.2,286046999.8,N
1508479855.1,286047000.2,N
1508479856.0,286047000.2,N
1508479875.8,286047000.3,N
1508479895.6,286047002.2,N
1508479915.5,286047002.0,N
1508479935.3,286047001.9,N
1508479955.2,286047002.6,N
1508479975.9,286047004.1,N
1508479995.7,286047003.3,N
1508480015.6,286047003.7,N
1508480035.4,286047003.6,N
1508480055.2,286047004.2,N
1508480075.1,286047003.8,N
1508480076.0,286047003.8,N
1508480095.8,286047004.4,N
1508480115.7,286047004.2,N
1508480135.5,286047004.1,N
1508480155.3,286047004.2,N
1508480175.2,286047005.9,Y
1508480195.0,286047002.0,P
1508480195.9,286047002.0,P
1508480215.8,286047003.8,P
1508480235.6,286047001.4,N
1508480255.4,286047001.3,N
1508480275.3,286047000.2,N
1508480295.1,286047000.4,N
1508480315.8,286046999.9,N
1508480335.7,286047000.0,N
1508480355.5,286047000.3,N
1508480375.3,286047002.4,N
1508480395.2,286047002.5,N
1508480415.0,286047004.0,Y
1508480415.9,286047004.0,P
1508480435.8,286047002.5,N
1508480455.6,286047001.3,N
1508480475.4,286047004.1,Y
1508480495.3,286046998.3,P
1508480515.1,286046999.5,N
1508480535.9,286047000.9,N
1508480555.7,286047000.7,N
1508480575.5,286047000.1,N
1508480595.4,286046999.9,N
1508480615.2,286047000.9,N
1508480635.0,286047001.0,N
1508480635.9,286047001.0,N
1508480655.8,286047000.6,N
1508480675.6,286047000.8,N
1508480695.4,286047000.2,N
1508480715.3,286047002.4,N
1508480735.1,286047002.5,N
1508480755.9,286047002.0,N
1508480775.7,286047001.9,N
1508480795.5,286047004.2,Y
1508480815.4,286047001.9,P
1508480835.2,286047002.7,P
1508480855.1,286047001.2,N
1508480856.0,286047001.2,N
1508480875.8,286046998.2,N
1508480895.6,286046998.8,N
1508480915.5,286046998.1,N
1508480935.3,286046999.1,N
1508480955.1,286046999.2,N
1508480975.9,286046996.9,N
1508480995.7,286046997.4,N
1508481015.6,286046997.2,N
1508481035.4,286046997.7,N
1508481055.2,286046997.5,N
1508481075.1,286046999.4,N
1508481076.0,286046999.4,N
1508481095.8,286046999.5,N
1508481115.6,286047000.7,N
1508481135.5,286047000.4,N
1508481155.3,286047002.8,N
1508481175.2,286047000.6,N
1508481195.9,286047000.5,N
1508481215.7,286047000.4,N
1508481235.6,286046998.3,N
1508481255.4,286047000.9,N
1508481275.2,286046999.8,N
1508481295.1,286047000.2,N
1508481296.0,286047000.2,N
1508481315.8,286047002.7,N
1508481335.7,286047001.7,N
1508481355.5,286047003.9,N
1508481375.3,286047001.5,N
1508481395.2,286047004.4,N
1508481415.0,286047003.1,N
1508481415.9,286047003.1,N
1508481435.7,286047003.5,N
1508481455.6,286047003.3,N
1508481475.4,286047003.4,N
1508481495.3,286047003.7,N
1508481515.1,286047002.1,N
1508481516.0,286047002.1,N
1508481535.8,286047004.0,N
1508481555.7,286047004.4,N
1508481575.5,286047001.5,N
1508481595.4,286047001.3,N
1508481615.2,286047004.1,N
1508481635.0,286047003.4,N
1508481635.9,286047003.4,N
1508481655.8,286047003.0,N
1508481675.6,286047005.1,Y
1508481695.4,286047003.4,P
1508481715.3,286047005.4,P
1508481735.1,286047006.9,P
1508481755.9,286047004.7,N
1508481775.7,286047004.7,N
1508481795.5,286047006.0,Y
1508481815.4,286046998.2,P
1508481835.2,286046998.3,N
1508481855.1,286046999.0,N
1508481856.0,286046999.0,N
1508481875.8,286046999.5,N
1508481895.6,286046997.4,N
1508481915.5,286046996.8,N
1508481935.3,286046999.1,N
1508481955.1,286046999.3,N
1508481975.9,286046998.3,N
1508481995.7,286046996.5,N
1508482015.6,286046996.8,N
1508482035.4,286046996.7,N
1508482055.2,286046997.5,N
1508482075.1,286046999.2,N
1508482076.0,286046999.2,N
1508482095.8,286046999.2,N
1508482115.6,286046996.8,N
1508482135.5,286046999.3,N
1508482155.3,286046995.3,N
1508482175.2,286046997.6,N
1508482195.9,286046997.5,N
1508482215.7,286046995.3,N
1508482235.6,286046997.8,N
1508482255.4,286046995.2,N
1508482275.2,286046996.1,N
1508482295.1,286046996.2,N
1508482296.0,286046996.2,N
1508482315.8,286046993.8,Y
1508482335.7,286046995.1,P
1508482355.5,286046995.5,P
1508482375.3,286046995.7,P
1508482395.2,286046994.9,Y
1508482415.0,286046999.5,P
1508482415.9,286046999.5,N
1508482435.7,286046999.2,N
1508482455.6,286046998.6,N
1508482475.4,286047001.2,N
1508482495.3,286047000.9,N
1508482515.1,286047000.1,N
1508482516.0,286047000.1,N
1508482535.8,286047002.2,N
1508482555.7,286047002.5,N
1508482575.5,286047002.7,N
1508482595.3,286047000.1,N
1508482615.2,286047002.5,N
1508482635.0,286047001.3,N
1508482635.9,286047001.3,N
1508482655.8,286047003.3,N
1508482675.6,286047003.1,N
1508482695.4,286047003.4,N
1508482715.3,286047005.1,N
1508482735.1,286047005.4,N
1508482755.8,286047003.6,N
1508482775.7,286047003.9,N
1508482795.5,286047001.8,N
